This demonstration page uses our WeatherBlox Daily Observations layout. Learn more.

Left ArrowRight Arrow

39.08367, -84.50855

Hourly Observations for October 30, 2015

Temp ( °F °C ) Dew Point ( °F °C ) Humidity (%) Winds ( mph kmh ) Pressure ( in mb ) Visibility ( mi km ) Precip ( " mm )
12:53 am 00:53 Cloudy 46 7.8 35 1.7 66 66 VRB 5 7 30.02 1017 10 16 0.00 0.00
1:53 am 01:53 Cloudy 46 7.8 37 2.8 71 71 VRB 5 7 30.03 1017 10 16 0.00 0.00
2:53 am 02:53 Cloudy 46 7.8 37 2.8 71 71 W 6 9 30.04 1017 10 16 0.00 0.00
3:53 am 03:53 Cloudy 46 7.8 37 2.8 71 71 W 8 13 30.05 1018 10 16 0.00 0.00
4:53 am 04:53 Cloudy 46 7.8 38 3.3 73 73 W 7 11 30.06 1018 10 16 0.00 0.00
5:53 am 05:53 Cloudy 46 7.8 38 3.3 73 73 W 6 9 30.09 1019 10 16 0.00 0.00
6:53 am 06:53 Cloudy 46 7.8 39 3.9 77 77 WNW 5 7 30.11 1020 10 16 0.00 0.00
7:53 am 07:53 Cloudy 46 7.8 39 3.9 77 77 NNW 3 6 30.13 1020 10 16 0.00 0.00
8:53 am 08:53 Cloudy 46 7.8 40 4.4 79 79 VRB 3 6 30.14 1021 10 16 0.00 0.00
9:53 am 09:53 Cloudy 47 8.3 41 5 80 80 W 5 7 30.17 1022 10 16 0.00 0.00
10:53 am 10:53 Cloudy 48 8.9 40 4.4 74 74 Calm 30.19 1022 10 16 0.00 0.00
11:53 am 11:53 Cloudy 49 9.4 40 4.4 71 71 Calm 30.19 1022 10 16 0.00 0.00
12:53 pm 12:53 Cloudy 50 10 39 3.9 66 66 WSW 3 6 30.21 1023 10 16 0.00 0.00
1:53 pm 13:53 Cloudy 49 9.4 38 3.3 66 66 W 3 6 30.19 1023 10 16 0.00 0.00
2:53 pm 14:53 Cloudy 50 10 38 3.3 63 63 Calm 30.16 1021 10 16 0.00 0.00
3:53 pm 15:53 Cloudy 50 10 39 3.9 66 66 WSW 3 6 30.17 1022 10 16 0.00 0.00
4:53 pm 16:53 Cloudy 51 10.6 38 3.3 61 61 Calm 30.17 1022 10 16 0.00 0.00
5:53 pm 17:53 Cloudy 50 10 39 3.9 66 66 Calm 30.17 1022 10 16 0.00 0.00
6:53 pm 18:53 Cloudy 49 9.4 39 3.9 69 69 Calm 30.15 1021 10 16 0.00 0.00
7:53 pm 19:53 Cloudy 48 8.9 40 4.4 74 74 Calm 30.15 1021 10 16 0.00 0.00
8:53 pm 20:53 Cloudy 49 9.4 38 3.3 66 66 ESE 6 9 30.14 1021 10 16 0.00 0.00
9:53 pm 21:53 Cloudy 48 8.9 39 3.9 71 71 S 5 7 30.15 1021 10 16 0.00 0.00
10:53 pm 22:53 Cloudy 47 8.3 38 3.3 71 71 SSE 3 6 30.17 1022 10 16 0.00 0.00
11:53 pm 23:53 Mostly Cloudy 47 8.3 39 3.9 74 74 Calm 30.18 1022 10 16 0.00 0.00

Powered by AerisWeather